(298057) = 2002 QN61 = 2011 QB25

Discovered at Palomar on 2002-08-17 by NEAT.

Orbit

Orbit type: Main Belt

Note: WebGL enabled browser required.

epoch2023-02-25.0
epoch JD2460000.5
perihelion date2019-11-18.42169
perihelion JD2458805.92169
argument of perihelion (°)332.67770
ascending node (°)310.52907
inclination (°)3.91418
eccentricity0.1515993
perihelion distance (AU)2.2863092
Tisserand w.r.t. Jupiter3.4
ΔV w.r.t. Earth (km/sec)9.6
semimajor axis (AU)2.6948459
mean anomaly (°)266.14454
mean daily motion (°/day)0.22279370
aphelion distance (AU)3.103
period (years)4.42
P-vector [x]0.22927958
P-vector [y]-0.88011494
P-vector [z]-0.41572655
Q-vector [x]0.97197679
Q-vector [y]0.18425382
Q-vector [z]0.14598513
absolute magnitude17.32
phase slope0.15
uncertainty0
referenceMPEC 2023-F144
observations used134
oppositions11
arc length (days)7525
first opposition used2002
last opposition used2023
residual rms (arc-secs)0.78
perturbers coarse indicatorM-v
perturbers precise indicator003Ek
first observation date used2002-08-17.0
last observation date used2023-03-25.0
computer nameMPCLINUX
JD of orbit computation2456731.481266
perihelion JD uncertainty (days)2.3650E-04
argument of perihelion uncertainty (°)1.6591E-04
ascending node uncertainty (°)1.5781E-04
inclination uncertainty (°)1.2913E-05
eccentricity uncertainty 8.6516E-08
perihelion distance uncertainty (AU)2.3719E-07
Minimum Orbit Intersection Distances (in AU)
for orbit epoch: 2460000.5, reference: E2023-FE4
Mercury1.82793
Venus1.55867
Earth1.27002
Mars0.83463
Jupiter2.04214
Saturn5.9714
Uranus15.512
Neptune26.9622

Observations

138 total observations over interval: 2002 08 17.46366 – 2023 03 25.398593
These data are available for download (format description).

